Regional Weather Roundup
Issued by NWS Charleston, SC

Current Version | Previous Version | Graphics & Text | Print | Product List | Glossary On
Versions: 1 2 3 4 5 6 7 8 9 10 11 12 13 14 15 16 17 18 19 20 21 22 23 24 25 26 27 28 29 30 31 32 33 34 35 36 37 38 39 40 41 42 43 44 45 46 47 48 49 50
000 ASUS42 KCHS 011910 RWRCHS REGIONAL WEATHER ROUNDUP NATIONAL WEATHER SERVICE CHARLESTON SC 300 PM EDT FRI AUG 01 2014 NOTE: "FAIR" INDICATES FEW OR NO CLOUDS BELOW 12,000 FEET WITH NO SIGNIFICANT WEATHER AND/OR OBSTRUCTIONS TO VISIBILITY. NOT ALL STATIONS ARE QUALITY CONTROLLED BY THE NATIONAL WEATHER SERVICE. USE DATA WITH CAUTION...ESPECIALLY DEWPOINT OBSERVATIONS. SCZ027-030-031-034>040-042>050-012000- ...SOUTH CAROLINA... CITY SKY/WX TMP DP RH WIND PRES REMARKS N CHARLESTON CLOUDY 84 74 71 SE15 30.03R HX 91 WATERFRONT PRK NOT AVBL FORT JOHNSON NOT AVBL MOUNT PLEASANT MOCLDY 81 75 83 SE6 30.03S JOHNS ISLAND CLOUDY 81 70 69 SE13 30.03R PINOPOLIS N/A 90 72 55 N2 29.93S HX 96 MONCKS CORNER NOT AVBL SUMMERVILLE FAIR 86 72 62 NE5 30.02R HX 92 BEAUFORT MCAS CLOUDY 86 76 71 S12 30.00F HX 96 BEAUFORT ARPT FAIR 86 79 79 E9 30.00R HX 99 HILTON HEAD IS PTSUNNY 82 75 78 E8 30.02S GEORGETOWN NOT AVBL WALTERBORO MOCLDY 86 70 58 NE5 30.01S HX 90 ORANGEBURG PTSUNNY 85 70 60 CALM 30.01F BARNWELL MOCLDY 84 72 65 NE6 30.02F AIKEN FAIR 79 73 83 NE6 30.07F MANNING FAIR 88 72 58 CALM 30.00S HX 94 KINGSTREE NOT AVBL COLUMBIA PTSUNNY 79 69 71 NW9 30.03S SUMTER PTSUNNY 83 74 73 VRB5 30.00F FLORENCE CLOUDY 85 74 69 E9 30.01F HX 92 MYRTLE BEACH CLOUDY 81 73 78 S17G23 30.02F N MYRTLE BEACH CLOUDY 81 73 76 S18 30.03S $$ GAZ063-065-086>088-099>101-113>116-118-119-134-136>141-150-012000- ...GEORGIA... CITY SKY/WX TMP DP RH WIND PRES REMARKS SAVANNAH ARPT PTSUNNY 81 73 76 SE7 30.01R HUNTER AAF PTSUNNY 78 76 94 E2 29.99R FORT STEWART TSTM 73 72 94 E7 30.01R FOG STATESBORO NOT AVBL SYLVANIA MOCLDY 84 77 79 N8 30.02F HX 94 CLAXTON FAIR 88 77 70 CALM 30.00S HX 100 THOMSON CLOUDY 73 72 95 N6G18 30.10S AUGUSTA-BUSH PTSUNNY 81 70 69 N7 30.02F AUGUSTA-DANIEL PTSUNNY 79 69 71 N8 30.04F SWAINSBORO FAIR 88 75 66 E7 30.02F HX 97 VIDALIA N/A 82 73 74 N8 30.01S ALMA TSTM 76 72 87 VRB7 30.00R FOG WAYCROSS PTSUNNY 96 71 43 NE3 29.94F HX 103 JESUP N/A N/A N/A N/A MISG N/A BRUNSWICK CLOUDY 86 72 62 E16 29.97S HX 92 SAINT SIMONS PTSUNNY 88 75 65 E12 29.97F HX 97 $$ SCZ027-028-034-036>038-045-046-048>050-GAZ119-141-012000- ...LAKE AND SUPPLEMENTAL COASTAL OBSERVATIONS... STATION/POSITION TIME TEMP WIND PRES WAVE SWELL AIR SEA DIR/SP/G HT/PER HT/PER/DIR (UTC) (F) (DEG/KT/KT) (MB) (FT/S) (FT/S/D) UPR LAKE MARION NOT AVBL WINYAH BAY 1800 79 160/ 9 1017.0S LAKE MURRAY 1800 72 340/ 3/ 8 1016.9F ACE BASIN NERRS 1800 83 110/ 3 1016.0S FORT PULASKI 1900 82 60/ 12/ 13 1016.3S SAPELO ISLAND 1800 86 80/ 9 1016.0S $$ ANZ835-935-AMZ111-154-330-350-352-354-374-450-454-472-012000- ...C-MAN AND BUOY OBSERVATIONS... STATION/POSITION TIME TEMP WIND PRES WAVE SWELL AIR SEA DIR/SP/G HT/PER HT/PER/DIR (UTC) (F) (DEG/KT/KT) (MB) (FT/S) (FT/S/D) FOLLY BEACH CMAN 1800 79 110/ 8/ 9 1016.8F BUOY 41004 1900 78 82 150/ 21/ 23 1015.2F 5/ 5 2/14 BUOY 41008 1900 83 85 70/ 12/ 14 1015.3S 3/ 6 2/130/ 6 5E ST. MARYS GA 1900 87 N/A 3/ 5 FRYING PAN BUOY NOT AVBL BUOY 41025 1900 VRB 6/ 10 1020.0R 3/ 6 3/100/ 6 CAPE LOOKOUT NC 1800 73 270/ 9/ 10 1019.5R BUOY 41002 1845 82 81 160/ 12/ 16 1019.6F 4/ 6 3/110/ 6 BUOY 41010 1900 83 85 140/ 8/ 8 1016.7F 2/ 7 2/ 70/ 7 BUOY 41012 NOT AVBL ST AUGUSTINE FL 1900 83 150/ 12/ 13 1015.5F CAPERS NEARSHORE 1800 78 170/ 14/ 16 N/A FRIPP NEARSHORE NOT AVBL $$

USA.gov is the U.S. government's official web portal to all federal, state and local government web resources and services.